contact:dominique.lefevre@mio.osupytheas.fr, maurice.libes@osupytheas.fr, didier.mallarino@osupytheas.fr
Project:EMSO http://www.emso-fr.org/EMSO-France
Depth: 2436.0 m
Title:EMSO Ligure Ouest : Data MII capteur MICROCAT
DateTime_Computer,Latitude,Longitude,Temperature,Conductivity,Pressure,DateTime_Instrument
DateTime_Computer,Latitude,Longitude,degC,S m-1,dbar,DateTime_Instrument
2023-02-03T00:02:38Z,42.805,6.029,13.3016,4.60068,2470.53,2023-2-03T02:09:10Z
2023-02-03T00:05:41Z,42.805,6.029,13.3019,4.60069,2470.53,2023-2-03T02:12:13Z
2023-02-03T00:08:44Z,42.805,6.029,13.3021,4.60070,2470.553,2023-2-03T02:15:16Z
2023-02-03T00:11:47Z,42.805,6.029,13.3015,4.60080,2470.577,2023-2-03T02:18:20Z
2023-02-03T00:14:50Z,42.805,6.029,13.3019,4.60072,2470.53,2023-2-03T02:21:23Z
2023-02-03T00:17:53Z,42.805,6.029,13.3021,4.60069,2470.53,2023-2-03T02:24:26Z
2023-02-03T00:20:56Z,42.805,6.029,13.3021,4.60073,2470.553,2023-2-03T02:27:29Z
2023-02-03T00:23:59Z,42.805,6.029,13.3019,4.60072,2470.567,2023-2-03T02:30:32Z
2023-02-03T00:27:02Z,42.805,6.029,13.3018,4.60070,2470.544,2023-2-03T02:33:35Z
2023-02-03T00:30:05Z,42.805,6.029,13.3020,4.60071,2470.553,2023-2-03T02:36:38Z
2023-02-03T00:33:09Z,42.805,6.029,13.3016,4.60071,2470.553,2023-2-03T02:39:41Z
2023-02-03T00:36:12Z,42.805,6.029,13.3015,4.60070,2470.553,2023-2-03T02:42:44Z
2023-02-03T00:39:15Z,42.805,6.029,13.3015,4.60069,2470.553,2023-2-03T02:45:47Z
2023-02-03T00:42:18Z,42.805,6.029,13.3020,4.60070,2470.544,2023-2-03T02:48:50Z
2023-02-03T00:45:21Z,42.805,6.029,13.3020,4.60072,2470.553,2023-2-03T02:51:53Z
2023-02-03T00:48:24Z,42.805,6.029,13.3021,4.60088,2470.507,2023-2-03T02:54:57Z
2023-02-03T00:51:27Z,42.805,6.029,13.3020,4.60073,2470.553,2023-2-03T02:58:00Z
2023-02-03T00:54:30Z,42.805,6.029,13.3017,4.60087,2470.553,2023-2-03T03:01:03Z
2023-02-03T00:57:33Z,42.805,6.029,13.3018,4.60072,2470.6,2023-2-03T03:04:06Z
2023-02-03T01:00:36Z,42.805,6.029,13.3022,4.60072,2470.553,2023-2-03T03:07:09Z
2023-02-03T01:03:39Z,42.805,6.029,13.3019,4.60080,2470.553,2023-2-03T03:10:12Z
2023-02-03T01:06:42Z,42.805,6.029,13.3019,4.60072,2470.6,2023-2-03T03:13:15Z
2023-02-03T01:09:45Z,42.805,6.029,13.3018,4.60077,2470.553,2023-2-03T03:16:18Z
2023-02-03T01:12:49Z,42.805,6.029,13.3019,4.60072,2470.577,2023-2-03T03:19:21Z
2023-02-03T01:15:52Z,42.805,6.029,13.3019,4.60072,2470.553,2023-2-03T03:22:24Z
2023-02-03T01:18:55Z,42.805,6.029,13.3018,4.60072,2470.553,2023-2-03T03:25:27Z
2023-02-03T01:21:58Z,42.805,6.029,13.3019,4.60072,2470.553,2023-2-03T03:28:30Z
2023-02-03T01:25:01Z,42.805,6.029,13.3017,4.60071,2470.591,2023-2-03T03:31:34Z
2023-02-03T01:28:04Z,42.805,6.029,13.3019,4.60081,2470.577,2023-2-03T03:34:37Z
2023-02-03T01:31:07Z,42.805,6.029,13.3019,4.60072,2470.544,2023-2-03T03:37:40Z
2023-02-03T01:34:10Z,42.805,6.029,13.3014,4.60072,2470.53,2023-2-03T03:40:43Z
2023-02-03T01:37:13Z,42.805,6.029,13.3016,4.60071,2470.567,2023-2-03T03:43:46Z
2023-02-03T01:40:16Z,42.805,6.029,13.3015,4.60072,2470.577,2023-2-03T03:46:49Z
2023-02-03T01:43:19Z,42.805,6.029,13.3018,4.60073,2470.577,2023-2-03T03:49:52Z
2023-02-03T01:46:23Z,42.805,6.029,13.3017,4.60080,2470.577,2023-2-03T03:52:55Z
2023-02-03T01:49:26Z,42.805,6.029,13.3016,4.60070,2470.553,2023-2-03T03:55:58Z
2023-02-03T01:52:29Z,42.805,6.029,13.3015,4.60075,2470.577,2023-2-03T03:59:01Z
2023-02-03T01:55:32Z,42.805,6.029,13.3015,4.60081,2470.591,2023-2-03T04:02:04Z
2023-02-03T01:58:35Z,42.805,6.029,13.3017,4.60070,2470.6,2023-2-03T04:05:07Z
2023-02-03T02:01:38Z,42.805,6.029,13.3020,4.60074,2470.553,2023-2-03T04:08:11Z
2023-02-03T02:04:41Z,42.805,6.029,13.3020,4.60073,2470.577,2023-2-03T04:11:14Z
2023-02-03T02:07:44Z,42.805,6.029,13.3019,4.60072,2470.591,2023-2-03T04:14:17Z
2023-02-03T02:10:47Z,42.805,6.029,13.3019,4.60073,2470.614,2023-2-03T04:17:20Z
2023-02-03T02:13:50Z,42.805,6.029,13.3016,4.60073,2470.624,2023-2-03T04:20:23Z
2023-02-03T02:16:53Z,42.805,6.029,13.3021,4.60079,2470.577,2023-2-03T04:23:26Z
2023-02-03T02:19:56Z,42.805,6.029,13.3022,4.60072,2470.577,2023-2-03T04:26:29Z
2023-02-03T02:22:59Z,42.805,6.029,13.3019,4.60074,2470.624,2023-2-03T04:29:32Z
2023-02-03T02:26:03Z,42.805,6.029,13.3022,4.60075,2470.6,2023-2-03T04:32:35Z
2023-02-03T02:29:06Z,42.805,6.029,13.3018,4.60072,2470.637,2023-2-03T04:35:38Z
2023-02-03T02:32:09Z,42.805,6.029,13.3021,4.60074,2470.577,2023-2-03T04:38:41Z
2023-02-03T02:35:12Z,42.805,6.029,13.3021,4.60075,2470.591,2023-2-03T04:41:44Z
2023-02-03T02:38:15Z,42.805,6.029,13.3021,4.60074,2470.614,2023-2-03T04:44:48Z
2023-02-03T02:41:18Z,42.805,6.029,13.3019,4.60075,2470.6,2023-2-03T04:47:51Z
2023-02-03T02:44:21Z,42.805,6.029,13.3021,4.60074,2470.6,2023-2-03T04:50:54Z
2023-02-03T02:47:24Z,42.805,6.029,13.3023,4.60079,2470.646,2023-2-03T04:53:57Z
2023-02-03T02:50:27Z,42.805,6.029,13.3016,4.60075,2470.637,2023-2-03T04:57:00Z
2023-02-03T02:53:30Z,42.805,6.029,13.3019,4.60076,2470.624,2023-2-03T05:00:03Z
2023-02-03T02:56:33Z,42.805,6.029,13.3019,4.60074,2470.624,2023-2-03T05:03:06Z
2023-02-03T02:59:36Z,42.805,6.029,13.3020,4.60074,2470.646,2023-2-03T05:06:09Z
2023-02-03T03:02:40Z,42.805,6.029,13.3020,4.60076,2470.6,2023-2-03T05:09:12Z
2023-02-03T03:05:43Z,42.805,6.029,13.3024,4.60077,2470.624,2023-2-03T05:12:15Z
2023-02-03T03:08:46Z,42.805,6.029,13.3023,4.60076,2470.614,2023-2-03T05:15:18Z
2023-02-03T03:11:49Z,42.805,6.029,13.3019,4.60079,2470.624,2023-2-03T05:18:21Z
2023-02-03T03:14:52Z,42.805,6.029,13.3019,4.60076,2470.624,2023-2-03T05:21:24Z
2023-02-03T03:17:55Z,42.805,6.029,13.3024,4.60079,2470.646,2023-2-03T05:24:28Z
2023-02-03T03:20:58Z,42.805,6.029,13.3026,4.60078,2470.646,2023-2-03T05:27:31Z
2023-02-03T03:24:01Z,42.805,6.029,13.3034,4.60084,2470.646,2023-2-03T05:30:34Z
2023-02-03T03:27:04Z,42.805,6.029,13.3022,4.60079,2470.61,2023-2-03T05:33:37Z
2023-02-03T03:30:07Z,42.805,6.029,13.3023,4.60077,2470.646,2023-2-03T05:36:40Z
2023-02-03T03:33:10Z,42.805,6.029,13.3028,4.60082,2470.67,2023-2-03T05:39:43Z
2023-02-03T03:36:13Z,42.805,6.029,13.3025,4.60085,2470.693,2023-2-03T05:42:46Z
2023-02-03T03:39:16Z,42.805,6.029,13.3026,4.60084,2470.661,2023-2-03T05:45:49Z
2023-02-03T03:42:20Z,42.805,6.029,13.3033,4.60079,2470.67,2023-2-03T05:48:52Z
2023-02-03T03:45:23Z,42.805,6.029,13.3019,4.60078,2470.624,2023-2-03T05:51:55Z
2023-02-03T03:48:26Z,42.805,6.029,13.3029,4.60082,2470.67,2023-2-03T05:54:58Z
2023-02-03T03:51:29Z,42.805,6.029,13.3021,4.60087,2470.646,2023-2-03T05:58:02Z
2023-02-03T03:54:32Z,42.805,6.029,13.3024,4.60081,2470.67,2023-2-03T06:01:05Z
2023-02-03T03:57:35Z,42.805,6.029,13.3026,4.60079,2470.67,2023-2-03T06:04:08Z
2023-02-03T04:00:38Z,42.805,6.029,13.3021,4.60081,2470.717,2023-2-03T06:07:11Z
2023-02-03T04:03:41Z,42.805,6.029,13.3021,4.60078,2470.707,2023-2-03T06:10:14Z
2023-02-03T04:06:44Z,42.805,6.029,13.3037,4.60112,2470.73,2023-2-03T06:13:17Z
2023-02-03T04:09:47Z,42.805,6.029,13.3028,4.60082,2470.693,2023-2-03T06:16:20Z
2023-02-03T04:12:50Z,42.805,6.029,13.3033,4.60088,2470.707,2023-2-03T06:19:23Z
2023-02-03T04:15:53Z,42.805,6.029,13.3023,4.60082,2470.717,2023-2-03T06:22:26Z
2023-02-03T04:18:57Z,42.805,6.029,13.3042,4.60080,2470.707,2023-2-03T06:25:29Z
2023-02-03T04:22:00Z,42.805,6.029,13.3062,4.60083,2470.717,2023-2-03T06:28:32Z
2023-02-03T04:25:03Z,42.805,6.029,13.3021,4.60089,2470.693,2023-2-03T06:31:35Z
2023-02-03T04:28:06Z,42.805,6.029,13.3021,4.60081,2470.717,2023-2-03T06:34:38Z
2023-02-03T04:31:09Z,42.805,6.029,13.3029,4.60090,2470.717,2023-2-03T06:37:42Z
2023-02-03T04:34:12Z,42.805,6.029,13.3061,4.60109,2470.717,2023-2-03T06:40:45Z
2023-02-03T04:37:15Z,42.805,6.029,13.3058,4.60114,2470.693,2023-2-03T06:43:48Z
2023-02-03T04:40:18Z,42.805,6.029,13.3039,4.60102,2470.73,2023-2-03T06:46:51Z
2023-02-03T04:43:21Z,42.805,6.029,13.3030,4.60107,2470.717,2023-2-03T06:49:54Z
2023-02-03T04:46:24Z,42.805,6.029,13.3067,4.60110,2470.73,2023-2-03T06:52:57Z
2023-02-03T04:49:27Z,42.805,6.029,13.3051,4.60099,2470.74,2023-2-03T06:56:00Z
2023-02-03T04:52:30Z,42.805,6.029,13.3036,4.60094,2470.717,2023-2-03T06:59:03Z
2023-02-03T04:55:34Z,42.805,6.029,13.3058,4.60131,2470.74,2023-2-03T07:02:06Z
2023-02-03T04:58:37Z,42.805,6.029,13.3059,4.60155,2470.73,2023-2-03T07:05:09Z
2023-02-03T05:01:40Z,42.805,6.029,13.3063,4.60144,2470.693,2023-2-03T07:08:12Z
2023-02-03T05:04:43Z,42.805,6.029,13.3054,4.60125,2470.717,2023-2-03T07:11:15Z
2023-02-03T05:07:46Z,42.805,6.029,13.3048,4.60154,2470.754,2023-2-03T07:14:19Z
2023-02-03T05:10:49Z,42.805,6.029,13.3042,4.60153,2470.717,2023-2-03T07:17:22Z
2023-02-03T05:13:52Z,42.805,6.029,13.3058,4.60165,2470.74,2023-2-03T07:20:25Z
2023-02-03T05:16:55Z,42.805,6.029,13.3056,4.60133,2470.763,2023-2-03T07:23:28Z
2023-02-03T05:19:58Z,42.805,6.029,13.3048,4.60146,2470.73,2023-2-03T07:26:31Z
2023-02-03T05:23:01Z,42.805,6.029,13.3056,4.60166,2470.73,2023-2-03T07:29:34Z
2023-02-03T05:26:04Z,42.805,6.029,13.3061,4.60175,2470.717,2023-2-03T07:32:37Z
2023-02-03T05:29:07Z,42.805,6.029,13.3062,4.60114,2470.726,2023-2-03T07:35:40Z
2023-02-03T05:32:11Z,42.805,6.029,13.3046,4.60147,2470.754,2023-2-03T07:38:43Z
2023-02-03T05:35:14Z,42.805,6.029,13.3054,4.60134,2470.754,2023-2-03T07:41:46Z
2023-02-03T05:38:17Z,42.805,6.029,13.3054,4.60150,2470.717,2023-2-03T07:44:49Z
2023-02-03T05:41:20Z,42.805,6.029,13.3059,4.60137,2470.754,2023-2-03T07:47:53Z
2023-02-03T05:44:23Z,42.805,6.029,13.3065,4.60173,2470.717,2023-2-03T07:50:56Z
2023-02-03T05:47:26Z,42.805,6.029,13.3055,4.60138,2470.777,2023-2-03T07:53:59Z
2023-02-03T05:50:29Z,42.805,6.029,13.3054,4.60153,2470.763,2023-2-03T07:57:02Z
2023-02-03T05:53:32Z,42.805,6.029,13.3047,4.60134,2470.74,2023-2-03T08:00:05Z
2023-02-03T05:56:35Z,42.805,6.029,13.3056,4.60132,2470.74,2023-2-03T08:03:08Z
2023-02-03T05:59:38Z,42.805,6.029,13.3067,4.60144,2470.73,2023-2-03T08:06:11Z
2023-02-03T06:02:41Z,42.805,6.029,13.3058,4.60173,2470.754,2023-2-03T08:09:14Z
2023-02-03T06:05:44Z,42.805,6.029,13.3078,4.60159,2470.777,2023-2-03T08:12:17Z
2023-02-03T06:08:47Z,42.805,6.029,13.3063,4.60193,2470.754,2023-2-03T08:15:20Z
2023-02-03T06:11:51Z,42.805,6.029,13.3068,4.60166,2470.763,2023-2-03T08:18:23Z
2023-02-03T06:14:54Z,42.805,6.029,13.3057,4.60162,2470.74,2023-2-03T08:21:26Z
2023-02-03T06:17:57Z,42.805,6.029,13.3065,4.60157,2470.74,2023-2-03T08:24:30Z
2023-02-03T06:21:00Z,42.805,6.029,13.3085,4.60155,2470.754,2023-2-03T08:27:33Z
2023-02-03T06:24:03Z,42.805,6.029,13.3050,4.60165,2470.74,2023-2-03T08:30:36Z
2023-02-03T06:27:06Z,42.805,6.029,13.3054,4.60141,2470.763,2023-2-03T08:33:39Z
2023-02-03T06:30:09Z,42.805,6.029,13.3061,4.60171,2470.754,2023-2-03T08:36:42Z
2023-02-03T06:33:12Z,42.805,6.029,13.3061,4.60152,2470.754,2023-2-03T08:39:45Z
2023-02-03T06:36:15Z,42.805,6.029,13.3064,4.60162,2470.74,2023-2-03T08:42:48Z
2023-02-03T06:39:18Z,42.805,6.029,13.3059,4.60113,2470.777,2023-2-03T08:45:51Z
2023-02-03T06:42:21Z,42.805,6.029,13.3065,4.60122,2470.777,2023-2-03T08:48:54Z
2023-02-03T06:45:24Z,42.805,6.029,13.3063,4.60149,2470.777,2023-2-03T08:51:57Z
2023-02-03T06:48:28Z,42.805,6.029,13.3073,4.60132,2470.763,2023-2-03T08:55:00Z
2023-02-03T06:51:31Z,42.805,6.029,13.3076,4.60137,2470.74,2023-2-03T08:58:03Z
2023-02-03T06:54:34Z,42.805,6.029,13.3075,4.60109,2470.763,2023-2-03T09:01:06Z
2023-02-03T06:57:37Z,42.805,6.029,13.3085,4.60102,2470.763,2023-2-03T09:04:10Z
2023-02-03T07:00:40Z,42.805,6.029,13.3088,4.60145,2470.8,2023-2-03T09:07:13Z
2023-02-03T07:03:43Z,42.805,6.029,13.3089,4.60132,2470.74,2023-2-03T09:10:16Z
2023-02-03T07:06:46Z,42.805,6.029,13.3098,4.60106,2470.763,2023-2-03T09:13:19Z
2023-02-03T07:09:49Z,42.805,6.029,13.3109,4.60102,2470.754,2023-2-03T09:16:22Z
2023-02-03T07:12:52Z,42.805,6.029,13.3084,4.60102,2470.763,2023-2-03T09:19:25Z
2023-02-03T07:15:55Z,42.805,6.029,13.3084,4.60133,2470.763,2023-2-03T09:22:28Z
2023-02-03T07:18:58Z,42.805,6.029,13.3089,4.60100,2470.777,2023-2-03T09:25:31Z
2023-02-03T07:22:01Z,42.805,6.029,13.3084,4.60112,2470.74,2023-2-03T09:28:34Z
2023-02-03T07:25:05Z,42.805,6.029,13.3096,4.60094,2470.763,2023-2-03T09:31:37Z
2023-02-03T07:28:08Z,42.805,6.029,13.3109,4.60095,2470.777,2023-2-03T09:34:40Z
2023-02-03T07:31:11Z,42.805,6.029,13.3103,4.60098,2470.763,2023-2-03T09:37:43Z
2023-02-03T07:34:14Z,42.805,6.029,13.3078,4.60143,2470.763,2023-2-03T09:40:47Z
2023-02-03T07:37:17Z,42.805,6.029,13.3101,4.60133,2470.763,2023-2-03T09:43:50Z
2023-02-03T07:40:20Z,42.805,6.029,13.3105,4.60140,2470.754,2023-2-03T09:46:53Z
2023-02-03T07:43:23Z,42.805,6.029,13.3090,4.60125,2470.763,2023-2-03T09:49:56Z
2023-02-03T07:46:26Z,42.805,6.029,13.3070,4.60128,2470.74,2023-2-03T09:52:59Z
2023-02-03T07:49:29Z,42.805,6.029,13.3085,4.60092,2470.777,2023-2-03T09:56:02Z
2023-02-03T07:52:32Z,42.805,6.029,13.3155,4.60090,2470.74,2023-2-03T09:59:05Z
2023-02-03T07:55:35Z,42.805,6.029,13.3154,4.60091,2470.763,2023-2-03T10:02:08Z
2023-02-03T07:58:38Z,42.805,6.029,13.3182,4.60090,2470.754,2023-2-03T10:05:11Z
2023-02-03T08:01:41Z,42.805,6.029,13.3077,4.60097,2470.754,2023-2-03T10:08:14Z
2023-02-03T08:04:45Z,42.805,6.029,13.3161,4.60090,2470.763,2023-2-03T10:11:17Z
2023-02-03T08:07:48Z,42.805,6.029,13.3036,4.60088,2470.763,2023-2-03T10:14:20Z
2023-02-03T08:10:51Z,42.805,6.029,13.3034,4.60087,2470.74,2023-2-03T10:17:24Z
2023-02-03T08:13:54Z,42.805,6.029,13.3032,4.60087,2470.777,2023-2-03T10:20:27Z
2023-02-03T08:16:57Z,42.805,6.029,13.3035,4.60090,2470.73,2023-2-03T10:23:30Z
2023-02-03T08:20:00Z,42.805,6.029,13.3034,4.60096,2470.754,2023-2-03T10:26:33Z
2023-02-03T08:23:03Z,42.805,6.029,13.3034,4.60086,2470.763,2023-2-03T10:29:36Z
2023-02-03T08:26:06Z,42.805,6.029,13.3034,4.60085,2470.763,2023-2-03T10:32:39Z
2023-02-03T08:29:09Z,42.805,6.029,13.3039,4.60088,2470.763,2023-2-03T10:35:42Z
2023-02-03T08:32:12Z,42.805,6.029,13.3036,4.60090,2470.777,2023-2-03T10:38:45Z
2023-02-03T08:35:15Z,42.805,6.029,13.3038,4.60087,2470.74,2023-2-03T10:41:48Z
2023-02-03T08:38:19Z,42.805,6.029,13.3050,4.60099,2470.777,2023-2-03T10:44:51Z
2023-02-03T08:41:22Z,42.805,6.029,13.3051,4.60099,2470.74,2023-2-03T10:47:54Z
2023-02-03T08:44:25Z,42.805,6.029,13.3050,4.60087,2470.754,2023-2-03T10:50:58Z
2023-02-03T08:47:28Z,42.805,6.029,13.3046,4.60086,2470.754,2023-2-03T10:54:01Z
2023-02-03T08:50:31Z,42.805,6.029,13.3038,4.60084,2470.754,2023-2-03T10:57:04Z
2023-02-03T08:53:34Z,42.805,6.029,13.3028,4.60095,2470.754,2023-2-03T11:00:07Z
2023-02-03T08:56:37Z,42.805,6.029,13.3026,4.60083,2470.763,2023-2-03T11:03:10Z
2023-02-03T08:59:40Z,42.805,6.029,13.3029,4.60081,2470.74,2023-2-03T11:06:13Z
2023-02-03T09:02:43Z,42.805,6.029,13.3026,4.60081,2470.754,2023-2-03T11:09:16Z
2023-02-03T09:05:46Z,42.805,6.029,13.3028,4.60079,2470.74,2023-2-03T11:12:19Z
2023-02-03T09:08:49Z,42.805,6.029,13.3024,4.60078,2470.717,2023-2-03T11:15:22Z
2023-02-03T09:11:52Z,42.805,6.029,13.3027,4.60079,2470.717,2023-2-03T11:18:25Z
2023-02-03T09:14:55Z,42.805,6.029,13.3025,4.60079,2470.717,2023-2-03T11:21:28Z
2023-02-03T09:17:59Z,42.805,6.029,13.3023,4.60081,2470.74,2023-2-03T11:24:31Z
2023-02-03T09:21:02Z,42.805,6.029,13.3027,4.60080,2470.74,2023-2-03T11:27:35Z
2023-02-03T09:24:05Z,42.805,6.029,13.3026,4.60081,2470.717,2023-2-03T11:30:38Z
2023-02-03T09:27:08Z,42.805,6.029,13.3027,4.60079,2470.707,2023-2-03T11:33:41Z
2023-02-03T09:30:11Z,42.805,6.029,13.3027,4.60078,2470.74,2023-2-03T11:36:44Z
2023-02-03T09:33:14Z,42.805,6.029,13.3025,4.60079,2470.74,2023-2-03T11:39:47Z
2023-02-03T09:36:17Z,42.805,6.029,13.3026,4.60079,2470.754,2023-2-03T11:42:50Z
2023-02-03T09:39:20Z,42.805,6.029,13.3031,4.60079,2470.73,2023-2-03T11:45:53Z
2023-02-03T09:42:23Z,42.805,6.029,13.3030,4.60081,2470.73,2023-2-03T11:48:56Z
2023-02-03T09:45:26Z,42.805,6.029,13.3034,4.60080,2470.684,2023-2-03T11:51:59Z
2023-02-03T09:48:29Z,42.805,6.029,13.3030,4.60082,2470.693,2023-2-03T11:55:02Z
2023-02-03T09:51:33Z,42.805,6.029,13.3029,4.60080,2470.693,2023-2-03T11:58:05Z
2023-02-03T09:54:36Z,42.805,6.029,13.3031,4.60082,2470.74,2023-2-03T12:01:09Z
2023-02-03T09:57:39Z,42.805,6.029,13.3029,4.60083,2470.707,2023-2-03T12:04:12Z
2023-02-03T10:00:42Z,42.805,6.029,13.3023,4.60081,2470.717,2023-2-03T12:07:15Z
2023-02-03T10:03:45Z,42.805,6.029,13.3026,4.60080,2470.693,2023-2-03T12:10:18Z
2023-02-03T10:06:48Z,42.805,6.029,13.3026,4.60080,2470.717,2023-2-03T12:13:21Z
2023-02-03T10:09:51Z,42.805,6.029,13.3026,4.60094,2470.717,2023-2-03T12:16:24Z
2023-02-03T10:12:54Z,42.805,6.029,13.3027,4.60085,2470.693,2023-2-03T12:19:27Z
2023-02-03T10:15:57Z,42.805,6.029,13.3024,4.60081,2470.661,2023-2-03T12:22:30Z
2023-02-03T10:19:00Z,42.805,6.029,13.3021,4.60084,2470.693,2023-2-03T12:25:33Z
2023-02-03T10:22:03Z,42.805,6.029,13.3022,4.60081,2470.707,2023-2-03T12:28:36Z
2023-02-03T10:25:07Z,42.805,6.029,13.3024,4.60082,2470.73,2023-2-03T12:31:39Z
2023-02-03T10:28:10Z,42.805,6.029,13.3024,4.60084,2470.73,2023-2-03T12:34:43Z
2023-02-03T10:31:13Z,42.805,6.029,13.3025,4.60081,2470.707,2023-2-03T12:37:46Z
2023-02-03T10:34:16Z,42.805,6.029,13.3026,4.60092,2470.693,2023-2-03T12:40:49Z
2023-02-03T10:37:19Z,42.805,6.029,13.3024,4.60083,2470.684,2023-2-03T12:43:52Z
2023-02-03T10:40:22Z,42.805,6.029,13.3026,4.60081,2470.684,2023-2-03T12:46:55Z
2023-02-03T10:43:25Z,42.805,6.029,13.3024,4.60080,2470.646,2023-2-03T12:49:58Z
2023-02-03T10:46:28Z,42.805,6.029,13.3025,4.60081,2470.693,2023-2-03T12:53:01Z
2023-02-03T10:49:31Z,42.805,6.029,13.3025,4.60080,2470.67,2023-2-03T12:56:04Z
2023-02-03T10:52:34Z,42.805,6.029,13.3027,4.60081,2470.684,2023-2-03T12:59:07Z
2023-02-03T10:55:37Z,42.805,6.029,13.3027,4.60079,2470.646,2023-2-03T13:02:10Z
2023-02-03T10:58:40Z,42.805,6.029,13.3023,4.60079,2470.707,2023-2-03T13:05:13Z
2023-02-03T11:01:44Z,42.805,6.029,13.3024,4.60080,2470.693,2023-2-03T13:08:17Z
2023-02-03T11:04:47Z,42.805,6.029,13.3026,4.60080,2470.67,2023-2-03T13:11:20Z
2023-02-03T11:07:50Z,42.805,6.029,13.3027,4.60084,2470.67,2023-2-03T13:14:23Z
2023-02-03T11:10:53Z,42.805,6.029,13.3026,4.60102,2470.646,2023-2-03T13:17:26Z
2023-02-03T11:13:56Z,42.805,6.029,13.3029,4.60082,2470.67,2023-2-03T13:20:29Z
2023-02-03T11:16:59Z,42.805,6.029,13.3024,4.60081,2470.633,2023-2-03T13:23:32Z
2023-02-03T11:20:02Z,42.805,6.029,13.3026,4.60084,2470.67,2023-2-03T13:26:35Z
2023-02-03T11:23:05Z,42.805,6.029,13.3026,4.60079,2470.684,2023-2-03T13:29:38Z
2023-02-03T11:26:08Z,42.805,6.029,13.3027,4.60078,2470.67,2023-2-03T13:32:41Z
2023-02-03T11:29:11Z,42.805,6.029,13.3027,4.60079,2470.646,2023-2-03T13:35:44Z
2023-02-03T11:32:14Z,42.805,6.029,13.3021,4.60079,2470.684,2023-2-03T13:38:47Z
2023-02-03T11:35:18Z,42.805,6.029,13.3026,4.60080,2470.646,2023-2-03T13:41:50Z
2023-02-03T11:38:21Z,42.805,6.029,13.3026,4.60081,2470.633,2023-2-03T13:44:54Z
2023-02-03T11:41:24Z,42.805,6.029,13.3025,4.60081,2470.624,2023-2-03T13:47:57Z
2023-02-03T11:44:27Z,42.805,6.029,13.3026,4.60081,2470.646,2023-2-03T13:51:00Z
2023-02-03T11:47:30Z,42.805,6.029,13.3026,4.60082,2470.661,2023-2-03T13:54:03Z
2023-02-03T11:50:33Z,42.805,6.029,13.3024,4.60081,2470.684,2023-2-03T13:57:06Z
2023-02-03T11:53:36Z,42.805,6.029,13.3021,4.60081,2470.646,2023-2-03T14:00:09Z
2023-02-03T11:56:39Z,42.805,6.029,13.3029,4.60081,2470.624,2023-2-03T14:03:12Z
2023-02-03T11:59:42Z,42.805,6.029,13.3026,4.60081,2470.661,2023-2-03T14:06:15Z
2023-02-03T12:02:45Z,42.805,6.029,13.3029,4.60081,2470.624,2023-2-03T14:09:18Z
2023-02-03T12:05:48Z,42.805,6.029,13.3027,4.60082,2470.624,2023-2-03T14:12:21Z
2023-02-03T12:08:51Z,42.805,6.029,13.3025,4.60084,2470.637,2023-2-03T14:15:24Z
2023-02-03T12:11:55Z,42.805,6.029,13.3029,4.60082,2470.624,2023-2-03T14:18:28Z
2023-02-03T12:14:58Z,42.805,6.029,13.3022,4.60091,2470.661,2023-2-03T14:21:31Z
2023-02-03T12:18:01Z,42.805,6.029,13.3026,4.60088,2470.661,2023-2-03T14:24:34Z
2023-02-03T12:21:04Z,42.805,6.029,13.3025,4.60090,2470.624,2023-2-03T14:27:37Z
2023-02-03T12:24:07Z,42.805,6.029,13.3026,4.60084,2470.624,2023-2-03T14:30:40Z
2023-02-03T12:27:10Z,42.805,6.029,13.3033,4.60089,2470.614,2023-2-03T14:33:43Z
2023-02-03T12:30:13Z,42.805,6.029,13.3040,4.60109,2470.661,2023-2-03T14:36:46Z
2023-02-03T12:33:16Z,42.805,6.029,13.3104,4.60113,2470.637,2023-2-03T14:39:49Z
2023-02-03T12:36:19Z,42.805,6.029,13.3045,4.60102,2470.624,2023-2-03T14:42:52Z
2023-02-03T12:39:22Z,42.805,6.029,13.3057,4.60106,2470.624,2023-2-03T14:45:55Z
2023-02-03T12:42:25Z,42.805,6.029,13.3057,4.60147,2470.6,2023-2-03T14:48:58Z
2023-02-03T12:45:29Z,42.805,6.029,13.3074,4.60110,2470.624,2023-2-03T14:52:02Z
2023-02-03T12:48:32Z,42.805,6.029,13.3035,4.60102,2470.591,2023-2-03T14:55:05Z
2023-02-03T12:51:35Z,42.805,6.029,13.3036,4.60092,2470.646,2023-2-03T14:58:08Z
2023-02-03T12:54:38Z,42.805,6.029,13.3034,4.60087,2470.624,2023-2-03T15:01:11Z
2023-02-03T12:57:41Z,42.805,6.029,13.3034,4.60089,2470.624,2023-2-03T15:04:14Z
2023-02-03T13:00:44Z,42.805,6.029,13.3026,4.60087,2470.6,2023-2-03T15:07:17Z
2023-02-03T13:03:47Z,42.805,6.029,13.3029,4.60088,2470.614,2023-2-03T15:10:20Z
2023-02-03T13:06:50Z,42.805,6.029,13.3028,4.60094,2470.646,2023-2-03T15:13:23Z
2023-02-03T13:43:28Z,42.805,6.029,13.3031,4.60081,2470.637,2023-2-03T15:45:45Z
2023-02-03T13:46:31Z,42.805,6.029,13.3030,4.60086,2470.624,2023-2-03T15:48:48Z
2023-02-03T13:49:34Z,42.805,6.029,13.3030,4.60085,2470.6,2023-2-03T15:51:51Z
2023-02-03T13:52:37Z,42.805,6.029,13.3027,4.60091,2470.614,2023-2-03T15:54:54Z
2023-02-03T13:55:40Z,42.805,6.029,13.3024,4.60091,2470.614,2023-2-03T15:57:57Z
2023-02-03T13:58:43Z,42.805,6.029,13.3027,4.60089,2470.577,2023-2-03T16:01:01Z
2023-02-03T14:01:46Z,42.805,6.029,13.3031,4.60092,2470.637,2023-2-03T16:04:04Z
2023-02-03T14:04:49Z,42.805,6.029,13.3027,4.60085,2470.591,2023-2-03T16:07:07Z
2023-02-03T14:07:53Z,42.805,6.029,13.3026,4.60087,2470.6,2023-2-03T16:10:10Z
2023-02-03T14:10:56Z,42.805,6.029,13.3025,4.60081,2470.6,2023-2-03T16:13:13Z
2023-02-03T14:13:59Z,42.805,6.029,13.3023,4.60083,2470.577,2023-2-03T16:16:16Z
2023-02-03T14:17:02Z,42.805,6.029,13.3026,4.60081,2470.624,2023-2-03T16:19:19Z
2023-02-03T14:20:05Z,42.805,6.029,13.3026,4.60084,2470.637,2023-2-03T16:22:22Z
2023-02-03T14:23:08Z,42.805,6.029,13.3026,4.60089,2470.577,2023-2-03T16:25:25Z
2023-02-03T14:26:11Z,42.805,6.029,13.3027,4.60082,2470.614,2023-2-03T16:28:28Z
2023-02-03T14:29:14Z,42.805,6.029,13.3029,4.60080,2470.614,2023-2-03T16:31:31Z
2023-02-03T14:32:17Z,42.805,6.029,13.3026,4.60081,2470.614,2023-2-03T16:34:34Z
2023-02-03T14:35:20Z,42.805,6.029,13.3026,4.60081,2470.614,2023-2-03T16:37:38Z
2023-02-03T14:38:23Z,42.805,6.029,13.3027,4.60083,2470.614,2023-2-03T16:40:41Z
2023-02-03T14:41:26Z,42.805,6.029,13.3026,4.60084,2470.637,2023-2-03T16:43:44Z
2023-02-03T14:44:30Z,42.805,6.029,13.3023,4.60082,2470.6,2023-2-03T16:46:47Z
2023-02-03T14:47:33Z,42.805,6.029,13.3023,4.60081,2470.6,2023-2-03T16:49:50Z
2023-02-03T14:50:36Z,42.805,6.029,13.3026,4.60081,2470.614,2023-2-03T16:52:53Z
2023-02-03T14:53:39Z,42.805,6.029,13.3029,4.60079,2470.624,2023-2-03T16:55:56Z
2023-02-03T14:56:42Z,42.805,6.029,13.3027,4.60086,2470.6,2023-2-03T16:58:59Z
2023-02-03T14:59:45Z,42.805,6.029,13.3027,4.60084,2470.624,2023-2-03T17:02:02Z
2023-02-03T15:02:48Z,42.805,6.029,13.3025,4.60082,2470.6,2023-2-03T17:05:05Z
2023-02-03T15:05:51Z,42.805,6.029,13.3024,4.60079,2470.624,2023-2-03T17:08:08Z
2023-02-03T15:08:54Z,42.805,6.029,13.3026,4.60079,2470.646,2023-2-03T17:11:11Z
2023-02-03T15:11:57Z,42.805,6.029,13.3024,4.60081,2470.661,2023-2-03T17:14:15Z
2023-02-03T15:15:00Z,42.805,6.029,13.3024,4.60081,2470.6,2023-2-03T17:17:18Z
2023-02-03T15:18:03Z,42.805,6.029,13.3027,4.60080,2470.646,2023-2-03T17:20:21Z
2023-02-03T15:21:06Z,42.805,6.029,13.3024,4.60081,2470.661,2023-2-03T17:23:24Z
2023-02-03T15:24:10Z,42.805,6.029,13.3026,4.60081,2470.624,2023-2-03T17:26:27Z
2023-02-03T15:27:13Z,42.805,6.029,13.3024,4.60084,2470.624,2023-2-03T17:29:30Z
2023-02-03T15:30:16Z,42.805,6.029,13.3024,4.60081,2470.624,2023-2-03T17:32:33Z
2023-02-03T15:33:19Z,42.805,6.029,13.3022,4.60081,2470.614,2023-2-03T17:35:36Z
2023-02-03T15:36:22Z,42.805,6.029,13.3022,4.60079,2470.637,2023-2-03T17:38:39Z
2023-02-03T15:39:25Z,42.805,6.029,13.3022,4.60079,2470.624,2023-2-03T17:41:42Z
2023-02-03T15:42:28Z,42.805,6.029,13.3025,4.60083,2470.624,2023-2-03T17:44:45Z
2023-02-03T15:45:31Z,42.805,6.029,13.3026,4.60084,2470.6,2023-2-03T17:47:48Z
2023-02-03T15:48:34Z,42.805,6.029,13.3022,4.60084,2470.637,2023-2-03T17:50:52Z